START_TIME,STEP,MOV.,P11,t_acc.,P23,t_acc.,P27,t_acc.,A4,t_acc.
1981-08-30 18:00:23.610 ,3,0,,0,,0,,0,,0
1981-08-30 18:00:28.410 ,3,0,0.,4.8,0.,4.8,0.,4.8,0.,4.8
1981-08-30 18:00:33.210 ,3,0,0.,4.8,0.,4.8,0.,4.8,0.,4.8
1981-08-30 18:00:38.010 ,3,0,0.,4.8,0.,4.8,1.,4.8,0.,4.8
1981-08-30 18:00:42.810 ,3,0,0.,4.8,0.,4.8,0.,4.8,0.,4.8
1981-08-30 18:00:47.610 ,2,0,0.,4.8,0.,4.8,0.,4.8,0.,4.8
1981-08-30 18:00:52.410 ,2,0,0.,4.8,0.,4.8,0.,4.8,0.,4.8
1981-08-30 18:00:57.210 ,2,0,0.,4.8,0.,4.8,0.,4.8,0.,4.8
1981-08-30 18:01:02.010 ,2,0,1.,4.8,0.,4.8,0.,4.8,0.,4.8
1981-08-30 18:01:06.810 ,2,0,0.,4.8,0.,4.8,1.,4.8,0.,4.8
1981-08-30 18:01:11.610 ,1,0,0.,4.8,1.,4.8,0.,4.8,0.,4.8
1981-08-30 18:01:16.410 ,1,0,0.,4.8,0.,4.8,0.,4.8,0.,4.8
1981-08-30 18:01:21.210 ,1,0,1.,4.8,0.,4.8,0.,4.8,0.,4.8
1981-08-30 18:01:26.010 ,1,0,1.,4.8,0.,4.8,0.,4.8,0.,4.8
1981-08-30 18:01:30.810 ,1,0,0.,4.8,0.,4.8,0.,4.8,0.,4.8
1981-08-30 18:01:35.610 ,0,0,0.,4.8,1.,4.8,0.,4.8,0.,4.8
1981-08-30 18:01:40.410 ,0,0,0.,4.8,0.,4.8,0.,4.8,0.,4.8
1981-08-30 18:01:45.210 ,0,0,0.,4.8,0.,4.8,0.,4.8,0.,4.8
1981-08-30 18:01:50.010 ,0,0,0.,4.8,0.,4.8,0.,4.8,0.,4.8
1981-08-30 18:01:54.810 ,0,0,0.,4.8,0.,4.8,0.,4.8,0.,4.8
1981-08-30 18:01:59.610 ,0,0,0.,4.8,0.,4.8,0.,4.8,0.,4.8
1981-08-30 18:02:04.410 ,0,0,0.,4.8,0.,4.8,0.,4.8,0.,4.8
1981-08-30 18:02:09.210 ,0,0,1.,4.8,0.,4.8,1.,4.8,0.,4.8
1981-08-30 18:02:14.010 ,0,0,0.,4.8,0.,4.8,1.,4.8,0.,4.8
1981-08-30 18:02:18.810 ,0,0,0.,4.8,0.,4.8,0.,4.8,0.,4.8
1981-08-30 18:02:23.610 ,1,0,1.,4.8,0.,4.8,0.,4.8,0.,4.8
1981-08-30 18:02:28.410 ,1,0,0.,4.8,0.,4.8,0.,4.8,0.,4.8
1981-08-30 18:02:33.210 ,1,0,0.,4.8,0.,4.8,0.,4.8,0.,4.8
1981-08-30 18:02:38.010 ,1,0,0.,4.8,0.,4.8,0.,4.8,0.,4.8
1981-08-30 18:02:42.810 ,1,0,4.,4.8,0.,4.8,0.,4.8,0.,4.8
1981-08-30 18:02:47.610 ,2,0,0.,4.8,0.,4.8,0.,4.8,0.,4.8
1981-08-30 18:02:52.410 ,2,0,2.,4.8,0.,4.8,0.,4.8,0.,4.8
1981-08-30 18:02:57.210 ,2,0,1.,4.8,0.,4.8,0.,4.8,0.,4.8
1981-08-30 18:03:02.010 ,2,0,0.,4.8,0.,4.8,0.,4.8,0.,4.8
1981-08-30 18:03:06.810 ,2,0,0.,4.8,0.,4.8,0.,4.8,0.,4.8
1981-08-30 18:03:11.610 ,3,0,0.,4.8,0.,4.8,0.,4.8,0.,4.8
1981-08-30 18:03:16.410 ,3,0,0.,4.8,0.,4.8,0.,4.8,0.,4.8
1981-08-30 18:03:21.210 ,3,0,0.,4.8,0.,4.8,0.,4.8,0.,4.8
1981-08-30 18:03:26.010 ,3,0,1.,4.8,0.,4.8,1.,4.8,0.,4.8
1981-08-30 18:03:30.810 ,3,0,1.,4.8,0.,4.8,0.,4.8,0.,4.8
1981-08-30 18:03:35.610 ,3,0,1.,4.8,0.,4.8,1.,4.8,0.,4.8
1981-08-30 18:03:40.410 ,3,0,1.,4.8,0.,4.8,0.,4.8,0.,4.8
1981-08-30 18:03:45.210 ,3,0,0.,4.8,0.,4.8,0.,4.8,0.,4.8
1981-08-30 18:03:50.010 ,3,0,0.,4.8,0.,4.8,0.,4.8,0.,4.8
1981-08-30 18:03:54.810 ,3,0,2.,4.8,0.,4.8,0.,4.8,0.,4.8
1981-08-30 18:03:59.610 ,4,0,0.,4.8,0.,4.8,0.,4.8,0.,4.8
1981-08-30 18:04:04.410 ,4,0,0.,4.8,0.,4.8,1.,4.8,0.,4.8
1981-08-30 18:04:09.210 ,4,0,0.,4.8,1.,4.8,0.,4.8,0.,4.8
1981-08-30 18:04:14.010 ,4,0,0.,4.8,0.,4.8,0.,4.8,0.,4.8
1981-08-30 18:04:18.810 ,4,0,0.,4.8,0.,4.8,0.,4.8,0.,4.8
1981-08-30 18:04:23.610 ,4,0,1.,4.8,0.,4.8,1.,4.8,0.,4.8
1981-08-30 18:04:28.410 ,4,0,0.,4.8,0.,4.8,0.,4.8,0.,4.8
1981-08-30 18:04:33.210 ,4,0,0.,4.8,0.,4.8,0.,4.8,0.,4.8
1981-08-30 18:04:38.010 ,4,0,0.,4.8,0.,4.8,0.,4.8,0.,4.8
1981-08-30 18:04:42.810 ,4,0,1.,4.8,0.,4.8,1.,4.8,0.,4.8
1981-08-30 18:04:47.610 ,5,0,0.,4.8,0.,4.8,0.,4.8,0.,4.8
1981-08-30 18:04:52.410 ,5,0,0.,4.8,0.,4.8,0.,4.8,0.,4.8
1981-08-30 18:04:57.210 ,5,0,0.,4.8,0.,4.8,0.,4.8,0.,4.8
1981-08-30 18:05:02.010 ,5,0,0.,4.8,0.,4.8,1.,4.8,0.,4.8
1981-08-30 18:05:06.810 ,5,0,0.,4.8,0.,4.8,0.,4.8,0.,4.8
1981-08-30 18:05:11.610 ,5,0,0.,4.8,0.,4.8,0.,4.8,0.,4.8
1981-08-30 18:05:16.410 ,5,0,0.,4.8,0.,4.8,0.,4.8,0.,4.8
1981-08-30 18:05:21.210 ,5,0,1.,4.8,0.,4.8,0.,4.8,0.,4.8
1981-08-30 18:05:26.010 ,5,0,1.,4.8,0.,4.8,0.,4.8,0.,4.8
1981-08-30 18:05:30.810 ,5,0,0.,4.8,0.,4.8,0.,4.8,0.,4.8
1981-08-30 18:05:35.610 ,6,0,0.,4.8,0.,4.8,0.,4.8,0.,4.8
1981-08-30 18:05:40.410 ,6,0,0.,4.8,0.,4.8,1.,4.8,0.,4.8
1981-08-30 18:05:45.210 ,6,0,0.,4.8,0.,4.8,0.,4.8,0.,4.8
1981-08-30 18:05:50.010 ,6,0,0.,4.8,0.,4.8,0.,4.8,0.,4.8
1981-08-30 18:05:54.810 ,6,0,0.,4.8,0.,4.8,1.,4.8,0.,4.8
1981-08-30 18:05:59.610 ,6,0,2.,4.8,0.,4.8,0.,4.8,0.,4.8
1981-08-30 18:06:04.410 ,6,0,0.,4.8,0.,4.8,0.,4.8,0.,4.8
1981-08-30 18:06:09.210 ,6,0,0.,4.8,0.,4.8,0.,4.8,0.,4.8
1981-08-30 18:06:14.010 ,6,0,0.,4.8,0.,4.8,0.,4.8,0.,4.8
1981-08-30 18:06:18.810 ,6,0,0.,4.8,0.,4.8,0.,4.8,0.,4.8
1981-08-30 18:06:23.610 ,7,0,0.,4.8,0.,4.8,0.,4.8,0.,4.8
1981-08-30 18:06:28.410 ,7,0,0.,4.8,0.,4.8,0.,4.8,0.,4.8
1981-08-30 18:06:33.210 ,7,0,3.,4.8,0.,4.8,0.,4.8,0.,4.8
1981-08-30 18:06:38.010 ,7,0,0.,4.8,0.,4.8,0.,4.8,0.,4.8
1981-08-30 18:06:42.810 ,7,0,0.,4.8,0.,4.8,0.,4.8,0.,4.8
1981-08-30 18:06:47.610 ,7,0,1.,4.8,0.,4.8,0.,4.8,0.,4.8
1981-08-30 18:06:52.410 ,7,0,0.,4.8,0.,4.8,0.,4.8,0.,4.8
1981-08-30 18:06:57.210 ,7,0,1.,4.8,0.,4.8,0.,4.8,0.,4.8
1981-08-30 18:07:02.010 ,7,0,1.,4.8,0.,4.8,0.,4.8,0.,4.8
1981-08-30 18:07:06.810 ,7,0,0.,4.8,0.,4.8,0.,4.8,0.,4.8
1981-08-30 18:07:11.610 ,7,0,,0,,0,,0,,0
1981-08-30 18:07:16.410 ,7,0,0.,4.8,0.,4.8,1.,4.8,0.,4.8
1981-08-30 18:07:21.210 ,7,0,1.,4.8,0.,4.8,0.,4.8,0.,4.8
1981-08-30 18:07:26.010 ,7,0,0.,4.8,0.,4.8,0.,4.8,0.,4.8
1981-08-30 18:07:30.810 ,7,0,2.,4.8,0.,4.8,0.,4.8,0.,4.8
1981-08-30 18:07:35.610 ,7,0,0.,4.8,0.,4.8,0.,4.8,0.,4.8
1981-08-30 18:07:40.410 ,7,0,2.,4.8,0.,4.8,0.,4.8,0.,4.8
1981-08-30 18:07:45.210 ,7,0,1.,4.8,0.,4.8,0.,4.8,0.,4.8
1981-08-30 18:07:50.010 ,7,0,0.,4.8,0.,4.8,0.,4.8,0.,4.8
1981-08-30 18:07:54.810 ,7,0,0.,4.8,0.,4.8,0.,4.8,0.,4.8
1981-08-30 18:07:59.610 ,6,0,0.,4.8,0.,4.8,0.,4.8,0.,4.8
1981-08-30 18:08:04.410 ,6,0,0.,4.8,0.,4.8,0.,4.8,0.,4.8
1981-08-30 18:08:09.210 ,6,0,0.,4.8,0.,4.8,0.,4.8,0.,4.8
1981-08-30 18:08:14.010 ,6,0,0.,4.8,0.,4.8,0.,4.8,0.,4.8
1981-08-30 18:08:18.810 ,6,0,1.,4.8,0.,4.8,0.,4.8,0.,4.8
1981-08-30 18:08:23.610 ,6,0,1.,4.8,0.,4.8,0.,4.8,0.,4.8
1981-08-30 18:08:28.410 ,6,0,2.,4.8,0.,4.8,0.,4.8,0.,4.8
1981-08-30 18:08:33.210 ,6,0,0.,4.8,0.,4.8,0.,4.8,0.,4.8
1981-08-30 18:08:38.010 ,6,0,0.,4.8,0.,4.8,0.,4.8,0.,4.8
1981-08-30 18:08:42.810 ,6,0,0.,4.8,0.,4.8,0.,4.8,0.,4.8
1981-08-30 18:08:47.610 ,5,0,0.,4.8,0.,4.8,0.,4.8,0.,4.8
1981-08-30 18:08:52.410 ,5,0,0.,4.8,0.,4.8,0.,4.8,0.,4.8
1981-08-30 18:08:57.210 ,5,0,0.,4.8,0.,4.8,0.,4.8,0.,4.8
1981-08-30 18:09:02.010 ,5,0,0.,4.8,0.,4.8,0.,4.8,0.,4.8
1981-08-30 18:09:06.810 ,5,0,2.,4.8,0.,4.8,1.,4.8,0.,4.8
1981-08-30 18:09:11.610 ,5,0,0.,4.8,0.,4.8,0.,4.8,0.,4.8
1981-08-30 18:09:16.410 ,5,0,0.,4.8,0.,4.8,0.,4.8,0.,4.8
1981-08-30 18:09:21.210 ,5,0,1.,4.8,0.,4.8,0.,4.8,0.,4.8
1981-08-30 18:09:26.010 ,5,0,1.,4.8,0.,4.8,0.,4.8,0.,4.8
1981-08-30 18:09:30.810 ,5,0,1.,4.8,0.,4.8,0.,4.8,0.,4.8
1981-08-30 18:09:35.610 ,4,0,0.,4.8,0.,4.8,0.,4.8,0.,4.8
1981-08-30 18:09:40.410 ,4,0,0.,4.8,0.,4.8,0.,4.8,0.,4.8
1981-08-30 18:09:45.210 ,4,0,0.,4.8,0.,4.8,0.,4.8,0.,4.8
1981-08-30 18:09:50.010 ,4,0,0.,4.8,0.,4.8,0.,4.8,0.,4.8
1981-08-30 18:09:54.810 ,4,0,0.,4.8,0.,4.8,0.,4.8,0.,4.8
1981-08-30 18:09:59.610 ,4,0,0.,4.8,0.,4.8,1.,4.8,0.,4.8
1981-08-30 18:10:04.410 ,4,0,2.,4.8,0.,4.8,0.,4.8,0.,4.8
1981-08-30 18:10:09.210 ,4,0,0.,4.8,0.,4.8,0.,4.8,0.,4.8
1981-08-30 18:10:14.010 ,4,0,0.,4.8,0.,4.8,0.,4.8,0.,4.8
1981-08-30 18:10:18.810 ,4,0,0.,4.8,0.,4.8,0.,4.8,0.,4.8
1981-08-30 18:10:23.610 ,3,0,0.,4.8,0.,4.8,0.,4.8,0.,4.8
1981-08-30 18:10:28.410 ,3,0,1.,4.8,0.,4.8,0.,4.8,0.,4.8
1981-08-30 18:10:33.210 ,3,0,0.,4.8,0.,4.8,0.,4.8,0.,4.8
1981-08-30 18:10:38.010 ,3,0,0.,4.8,0.,4.8,0.,4.8,0.,4.8
1981-08-30 18:10:42.810 ,3,0,0.,4.8,0.,4.8,0.,4.8,0.,4.8
1981-08-30 18:10:47.610 ,3,0,2.,4.8,0.,4.8,0.,4.8,0.,4.8
1981-08-30 18:10:52.410 ,3,0,0.,4.8,0.,4.8,0.,4.8,0.,4.8
1981-08-30 18:10:57.210 ,3,0,0.,4.8,0.,4.8,0.,4.8,0.,4.8
1981-08-30 18:11:02.010 ,3,0,0.,4.8,0.,4.8,0.,4.8,0.,4.8
1981-08-30 18:11:06.810 ,3,0,1.,4.8,0.,4.8,1.,4.8,0.,4.8
1981-08-30 18:11:11.610 ,2,0,1.,4.8,0.,4.8,0.,4.8,0.,4.8
1981-08-30 18:11:16.410 ,2,0,0.,4.8,0.,4.8,0.,4.8,0.,4.8
1981-08-30 18:11:21.210 ,2,0,1.,4.8,0.,4.8,0.,4.8,0.,4.8
1981-08-30 18:11:26.010 ,2,0,0.,4.8,0.,4.8,0.,4.8,0.,4.8
1981-08-30 18:11:30.810 ,2,0,0.,4.8,0.,4.8,0.,4.8,0.,4.8
1981-08-30 18:11:35.610 ,2,0,0.,4.8,0.,4.8,0.,4.8,0.,4.8
1981-08-30 18:11:40.410 ,2,0,2.,4.8,0.,4.8,0.,4.8,0.,4.8
1981-08-30 18:11:45.210 ,2,0,2.,4.8,0.,4.8,0.,4.8,0.,4.8
1981-08-30 18:11:50.010 ,2,0,0.,4.8,0.,4.8,0.,4.8,0.,4.8
1981-08-30 18:11:54.810 ,2,0,2.,4.8,0.,4.8,0.,4.8,0.,4.8
1981-08-30 18:11:59.610 ,1,0,1.,4.8,0.,4.8,1.,4.8,0.,4.8
1981-08-30 18:12:04.410 ,1,0,0.,4.8,0.,4.8,0.,4.8,0.,4.8
1981-08-30 18:12:09.210 ,1,0,0.,4.8,0.,4.8,0.,4.8,0.,4.8
1981-08-30 18:12:14.010 ,1,0,0.,4.8,0.,4.8,0.,4.8,0.,4.8
1981-08-30 18:12:18.810 ,1,0,1.,4.8,0.,4.8,0.,4.8,0.,4.8
1981-08-30 18:12:23.610 ,1,0,1.,4.8,0.,4.8,0.,4.8,0.,4.8
1981-08-30 18:12:28.410 ,1,0,0.,4.8,0.,4.8,0.,4.8,0.,4.8
1981-08-30 18:12:33.210 ,1,0,0.,4.8,0.,4.8,0.,4.8,0.,4.8
1981-08-30 18:12:38.010 ,1,0,0.,4.8,0.,4.8,0.,4.8,0.,4.8
1981-08-30 18:12:42.810 ,1,0,0.,4.8,0.,4.8,0.,4.8,0.,4.8
1981-08-30 18:12:47.610 ,0,0,0.,4.8,0.,4.8,0.,4.8,0.,4.8
1981-08-30 18:12:52.410 ,0,0,0.,4.8,0.,4.8,0.,4.8,0.,4.8
1981-08-30 18:12:57.210 ,0,0,1.,4.8,0.,4.8,0.,4.8,0.,4.8
1981-08-30 18:13:02.010 ,0,0,0.,4.8,0.,4.8,0.,4.8,0.,4.8
1981-08-30 18:13:06.810 ,0,0,0.,4.8,0.,4.8,0.,4.8,0.,4.8
1981-08-30 18:13:11.610 ,0,0,0.,4.8,0.,4.8,0.,4.8,0.,4.8
1981-08-30 18:13:16.410 ,0,0,0.,4.8,0.,4.8,0.,4.8,0.,4.8
1981-08-30 18:13:21.210 ,0,0,0.,4.8,0.,4.8,1.,4.8,0.,4.8
1981-08-30 18:13:26.010 ,0,0,0.,4.8,0.,4.8,0.,4.8,0.,4.8
1981-08-30 18:13:30.810 ,0,0,0.,4.8,0.,4.8,0.,4.8,0.,4.8
1981-08-30 18:13:35.610 ,0,0,0.,4.8,0.,4.8,0.,4.8,0.,4.8
1981-08-30 18:13:40.410 ,0,0,2.,4.8,0.,4.8,0.,4.8,0.,4.8
1981-08-30 18:13:45.210 ,0,0,2.,4.8,0.,4.8,1.,4.8,0.,4.8
1981-08-30 18:13:50.010 ,0,0,0.,4.8,0.,4.8,0.,4.8,0.,4.8
1981-08-30 18:13:54.810 ,0,0,0.,4.8,0.,4.8,0.,4.8,0.,4.8
1981-08-30 18:13:59.610 ,0,0,1.,4.8,0.,4.8,0.,4.8,0.,4.8
1981-08-30 18:14:04.410 ,0,0,0.,4.8,0.,4.8,0.,4.8,0.,4.8
1981-08-30 18:14:09.210 ,0,0,1.,4.8,0.,4.8,0.,4.8,0.,4.8
1981-08-30 18:14:14.010 ,0,0,1.,4.8,0.,4.8,1.,4.8,0.,4.8
1981-08-30 18:14:18.810 ,0,0,1.,4.8,0.,4.8,0.,4.8,0.,4.8
1981-08-30 18:14:23.610 ,1,0,0.,4.8,0.,4.8,0.,4.8,0.,4.8
1981-08-30 18:14:28.410 ,1,0,0.,4.8,0.,4.8,0.,4.8,0.,4.8
1981-08-30 18:14:33.210 ,1,0,0.,4.8,0.,4.8,0.,4.8,0.,4.8
1981-08-30 18:14:38.010 ,1,0,2.,4.8,0.,4.8,0.,4.8,0.,4.8
1981-08-30 18:14:42.810 ,1,0,0.,4.8,0.,4.8,0.,4.8,0.,4.8
1981-08-30 18:14:47.610 ,1,0,0.,4.8,0.,4.8,0.,4.8,0.,4.8
1981-08-30 18:14:52.410 ,1,0,0.,4.8,0.,4.8,0.,4.8,0.,4.8
1981-08-30 18:14:57.210 ,1,0,2.,4.8,0.,4.8,0.,4.8,0.,4.8
1981-08-30 18:15:02.010 ,1,0,1.,4.8,0.,4.8,0.,4.8,0.,4.8
1981-08-30 18:15:06.810 ,1,0,0.,4.8,0.,4.8,0.,4.8,0.,4.8
1981-08-30 18:15:11.610 ,2,0,0.,4.8,0.,4.8,0.,4.8,0.,4.8
1981-08-30 18:15:16.410 ,2,0,0.,4.8,0.,4.8,0.,4.8,0.,4.8
1981-08-30 18:15:21.210 ,2,0,1.,4.8,0.,4.8,0.,4.8,0.,4.8
1981-08-30 18:15:26.010 ,2,0,1.,4.8,0.,4.8,0.,4.8,0.,4.8
1981-08-30 18:15:30.810 ,2,0,1.,4.8,0.,4.8,1.,4.8,0.,4.8
1981-08-30 18:15:35.610 ,2,0,0.,4.8,0.,4.8,1.,4.8,0.,4.8
1981-08-30 18:15:40.410 ,2,0,1.,4.8,0.,4.8,0.,4.8,0.,4.8
1981-08-30 18:15:45.210 ,2,0,0.,4.8,0.,4.8,0.,4.8,0.,4.8
1981-08-30 18:15:50.010 ,2,0,0.,4.8,0.,4.8,0.,4.8,0.,4.8
1981-08-30 18:15:54.810 ,2,0,0.,4.8,0.,4.8,1.,4.8,0.,4.8
1981-08-30 18:15:59.610 ,3,0,0.,4.8,0.,4.8,0.,4.8,0.,4.8
1981-08-30 18:16:04.410 ,3,0,1.,4.8,1.,4.8,0.,4.8,0.,4.8
1981-08-30 18:16:09.210 ,3,0,3.,4.8,0.,4.8,0.,4.8,0.,4.8
1981-08-30 18:16:14.010 ,3,0,0.,4.8,0.,4.8,0.,4.8,0.,4.8
1981-08-30 18:16:18.810 ,3,0,0.,4.8,0.,4.8,0.,4.8,0.,4.8
1981-08-30 18:16:23.610 ,4,0,0.,4.8,0.,4.8,0.,4.8,0.,4.8
1981-08-30 18:16:28.410 ,4,0,2.,4.8,0.,4.8,0.,4.8,0.,4.8
1981-08-30 18:16:33.210 ,4,0,0.,4.8,0.,4.8,0.,4.8,0.,4.8
1981-08-30 18:16:38.010 ,4,0,1.,4.8,0.,4.8,0.,4.8,0.,4.8
1981-08-30 18:16:42.810 ,4,0,0.,4.8,0.,4.8,0.,4.8,0.,4.8
1981-08-30 18:16:47.610 ,5,0,0.,4.8,0.,4.8,0.,4.8,0.,4.8
1981-08-30 18:16:52.410 ,5,0,0.,4.8,0.,4.8,0.,4.8,0.,4.8
1981-08-30 18:16:57.210 ,5,0,0.,4.8,0.,4.8,0.,4.8,0.,4.8
1981-08-30 18:17:02.010 ,5,0,0.,4.8,0.,4.8,0.,4.8,0.,4.8
1981-08-30 18:17:06.810 ,5,0,0.,4.8,0.,4.8,0.,4.8,0.,4.8
1981-08-30 18:17:11.610 ,6,0,0.,4.8,0.,4.8,0.,4.8,0.,4.8
1981-08-30 18:17:16.410 ,6,0,0.,4.8,0.,4.8,0.,4.8,0.,4.8
1981-08-30 18:17:21.210 ,6,0,0.,4.8,0.,4.8,0.,4.8,0.,4.8
1981-08-30 18:17:26.010 ,6,0,0.,4.8,0.,4.8,0.,4.8,0.,4.8
1981-08-30 18:17:30.810 ,6,0,0.,4.8,0.,4.8,0.,4.8,0.,4.8
1981-08-30 18:17:35.610 ,7,0,0.,4.8,0.,4.8,0.,4.8,0.,4.8
1981-08-30 18:17:40.410 ,7,0,0.,4.8,0.,4.8,0.,4.8,0.,4.8
1981-08-30 18:17:45.210 ,7,0,0.,4.8,0.,4.8,0.,4.8,0.,4.8
1981-08-30 18:17:50.010 ,7,0,0.,4.8,0.,4.8,0.,4.8,0.,4.8
1981-08-30 18:17:54.810 ,7,0,0.,4.8,0.,4.8,0.,4.8,0.,4.8
1981-08-30 18:17:59.610 ,7,0,0.,4.8,0.,4.8,0.,4.8,0.,4.8
1981-08-30 18:18:04.410 ,7,0,0.,4.8,0.,4.8,0.,4.8,0.,4.8
1981-08-30 18:18:09.210 ,7,0,0.,4.8,0.,4.8,0.,4.8,0.,4.8
1981-08-30 18:18:14.010 ,7,0,0.,4.8,0.,4.8,0.,4.8,0.,4.8
1981-08-30 18:18:18.810 ,7,0,0.,4.8,0.,4.8,1.,4.8,0.,4.8
1981-08-30 18:18:23.610 ,6,0,3.,4.8,0.,4.8,0.,4.8,0.,4.8
1981-08-30 18:18:28.410 ,6,0,0.,4.8,0.,4.8,0.,4.8,0.,4.8
1981-08-30 18:18:33.210 ,6,0,0.,4.8,0.,4.8,0.,4.8,0.,4.8
1981-08-30 18:18:38.010 ,6,0,0.,4.8,0.,4.8,0.,4.8,0.,4.8
1981-08-30 18:18:42.810 ,6,0,0.,4.8,0.,4.8,0.,4.8,0.,4.8
1981-08-30 18:18:47.610 ,5,0,1.,4.8,0.,4.8,0.,4.8,0.,4.8
1981-08-30 18:18:52.410 ,5,0,0.,4.8,0.,4.8,0.,4.8,0.,4.8
1981-08-30 18:18:57.210 ,5,0,0.,4.8,0.,4.8,0.,4.8,0.,4.8
1981-08-30 18:19:02.010 ,5,0,0.,4.8,1.,4.8,0.,4.8,0.,4.8
1981-08-30 18:19:06.810 ,5,0,0.,4.8,0.,4.8,0.,4.8,0.,4.8
1981-08-30 18:19:11.610 ,4,0,0.,4.8,0.,4.8,0.,4.8,0.,4.8
1981-08-30 18:19:16.410 ,4,0,0.,4.8,0.,4.8,0.,4.8,0.,4.8
1981-08-30 18:19:21.210 ,4,0,0.,4.8,0.,4.8,0.,4.8,0.,4.8
1981-08-30 18:19:26.010 ,4,0,0.,4.8,0.,4.8,0.,4.8,0.,4.8
1981-08-30 18:19:30.810 ,4,0,0.,4.8,0.,4.8,0.,4.8,0.,4.8
1981-08-30 18:19:35.610 ,3,0,0.,4.8,0.,4.8,0.,4.8,0.,4.8
1981-08-30 18:19:40.410 ,3,0,2.,4.8,0.,4.8,0.,4.8,0.,4.8
1981-08-30 18:19:45.210 ,3,0,0.,4.8,0.,4.8,0.,4.8,0.,4.8
1981-08-30 18:19:50.010 ,3,0,0.,4.8,0.,4.8,1.,4.8,0.,4.8
1981-08-30 18:19:54.810 ,3,0,0.,4.8,0.,4.8,0.,4.8,0.,4.8
1981-08-30 18:19:59.610 ,2,0,0.,4.8,0.,4.8,0.,4.8,0.,4.8
1981-08-30 18:20:04.410 ,2,0,1.,4.8,0.,4.8,1.,4.8,0.,4.8
1981-08-30 18:20:09.210 ,2,0,0.,4.8,0.,4.8,0.,4.8,0.,4.8
1981-08-30 18:20:14.010 ,2,0,0.,4.8,0.,4.8,0.,4.8,0.,4.8
1981-08-30 18:20:18.810 ,2,0,1.,4.8,0.,4.8,0.,4.8,0.,4.8
1981-08-30 18:20:23.610 ,1,0,0.,4.8,0.,4.8,0.,4.8,0.,4.8
1981-08-30 18:20:28.410 ,1,0,0.,4.8,0.,4.8,0.,4.8,0.,4.8
1981-08-30 18:20:33.210 ,1,0,1.,4.8,0.,4.8,0.,4.8,0.,4.8
1981-08-30 18:20:38.010 ,1,0,0.,4.8,0.,4.8,0.,4.8,0.,4.8
1981-08-30 18:20:42.810 ,1,0,1.,4.8,0.,4.8,0.,4.8,0.,4.8
1981-08-30 18:20:47.610 ,0,0,0.,4.8,0.,4.8,0.,4.8,0.,4.8
1981-08-30 18:20:52.410 ,0,0,0.,4.8,0.,4.8,0.,4.8,0.,4.8
1981-08-30 18:20:57.210 ,0,0,0.,4.8,0.,4.8,0.,4.8,0.,4.8
1981-08-30 18:21:02.010 ,0,0,1.,4.8,0.,4.8,0.,4.8,0.,4.8
1981-08-30 18:21:06.810 ,0,0,0.,4.8,0.,4.8,0.,4.8,0.,4.8
1981-08-30 18:21:11.610 ,0,0,0.,4.8,0.,4.8,0.,4.8,0.,4.8
1981-08-30 18:21:16.410 ,0,0,0.,4.8,1.,4.8,0.,4.8,0.,4.8
1981-08-30 18:21:21.210 ,0,0,1.,4.8,0.,4.8,0.,4.8,0.,4.8
1981-08-30 18:21:26.010 ,0,0,0.,4.8,0.,4.8,0.,4.8,0.,4.8
1981-08-30 18:21:30.810 ,0,0,0.,4.8,0.,4.8,0.,4.8,0.,4.8
1981-08-30 18:21:35.610 ,1,0,0.,4.8,0.,4.8,0.,4.8,0.,4.8
1981-08-30 18:21:40.410 ,1,0,0.,4.8,0.,4.8,0.,4.8,0.,4.8
1981-08-30 18:21:45.210 ,1,0,1.,4.8,0.,4.8,0.,4.8,0.,4.8
1981-08-30 18:21:50.010 ,1,0,2.,4.8,0.,4.8,0.,4.8,0.,4.8
1981-08-30 18:21:54.810 ,1,0,0.,4.8,0.,4.8,0.,4.8,0.,4.8
1981-08-30 18:21:59.610 ,2,0,2.,4.8,0.,4.8,0.,4.8,0.,4.8
1981-08-30 18:22:04.410 ,2,0,1.,4.8,0.,4.8,0.,4.8,0.,4.8
1981-08-30 18:22:09.210 ,2,0,0.,4.8,0.,4.8,0.,4.8,0.,4.8
1981-08-30 18:22:14.010 ,2,0,0.,4.8,0.,4.8,0.,4.8,0.,4.8
1981-08-30 18:22:18.810 ,2,0,1.,4.8,0.,4.8,0.,4.8,0.,4.8
1981-08-30 18:22:23.610 ,3,0,2.,4.8,0.,4.8,0.,4.8,0.,4.8
1981-08-30 18:22:28.410 ,3,0,0.,4.8,0.,4.8,0.,4.8,0.,4.8
1981-08-30 18:22:33.210 ,3,0,0.,4.8,0.,4.8,0.,4.8,0.,4.8
1981-08-30 18:22:38.010 ,3,0,0.,4.8,0.,4.8,0.,4.8,0.,4.8
1981-08-30 18:22:42.810 ,3,0,0.,4.8,0.,4.8,0.,4.8,0.,4.8
1981-08-30 18:22:47.610 ,3,0,1.,4.8,1.,4.8,0.,4.8,0.,4.8
1981-08-30 18:22:52.410 ,3,0,1.,4.8,0.,4.8,0.,4.8,0.,4.8
1981-08-30 18:22:57.210 ,3,0,2.,4.8,0.,4.8,0.,4.8,0.,4.8
1981-08-30 18:23:02.010 ,3,0,0.,4.8,0.,4.8,0.,4.8,0.,4.8
1981-08-30 18:23:06.810 ,3,0,0.,4.8,0.,4.8,0.,4.8,0.,4.8
1981-08-30 18:23:11.610 ,4,0,0.,4.8,0.,4.8,1.,4.8,0.,4.8
1981-08-30 18:23:16.410 ,4,0,0.,4.8,0.,4.8,0.,4.8,0.,4.8
1981-08-30 18:23:21.210 ,4,0,0.,4.8,0.,4.8,0.,4.8,0.,4.8
1981-08-30 18:23:26.010 ,4,0,0.,4.8,0.,4.8,0.,4.8,0.,4.8
1981-08-30 18:23:30.810 ,4,0,2.,4.8,0.,4.8,0.,4.8,0.,4.8
1981-08-30 18:23:35.610 ,4,0,1.,4.8,0.,4.8,0.,4.8,0.,4.8
1981-08-30 18:23:40.410 ,4,0,1.,4.8,0.,4.8,0.,4.8,0.,4.8
1981-08-30 18:23:45.210 ,4,0,0.,4.8,0.,4.8,0.,4.8,0.,4.8
1981-08-30 18:23:50.010 ,4,0,0.,4.8,0.,4.8,0.,4.8,0.,4.8
1981-08-30 18:23:54.810 ,4,0,0.,4.8,0.,4.8,0.,4.8,0.,4.8
1981-08-30 18:23:59.610 ,5,0,1.,4.8,0.,4.8,0.,4.8,0.,4.8
1981-08-30 18:24:04.410 ,5,0,0.,4.8,0.,4.8,0.,4.8,0.,4.8
1981-08-30 18:24:09.210 ,5,0,0.,4.8,1.,4.8,0.,4.8,0.,4.8
1981-08-30 18:24:14.010 ,5,0,0.,4.8,0.,4.8,1.,4.8,0.,4.8
1981-08-30 18:24:18.810 ,5,0,0.,4.8,0.,4.8,0.,4.8,0.,4.8
1981-08-30 18:24:23.610 ,5,0,0.,4.8,0.,4.8,0.,4.8,0.,4.8
1981-08-30 18:24:28.410 ,5,0,0.,4.8,0.,4.8,0.,4.8,0.,4.8
1981-08-30 18:24:33.210 ,5,0,2.,4.8,0.,4.8,0.,4.8,0.,4.8
1981-08-30 18:24:38.010 ,5,0,0.,4.8,0.,4.8,0.,4.8,0.,4.8
1981-08-30 18:24:42.810 ,5,0,0.,4.8,0.,4.8,1.,4.8,0.,4.8
1981-08-30 18:24:47.610 ,6,0,0.,4.8,0.,4.8,0.,4.8,0.,4.8
1981-08-30 18:24:52.410 ,6,0,2.,4.8,0.,4.8,0.,4.8,0.,4.8
1981-08-30 18:24:57.210 ,6,0,1.,4.8,0.,4.8,1.,4.8,0.,4.8
1981-08-30 18:25:02.010 ,6,0,0.,4.8,0.,4.8,0.,4.8,0.,4.8
1981-08-30 18:25:06.810 ,6,0,0.,4.8,0.,4.8,0.,4.8,0.,4.8
1981-08-30 18:25:11.610 ,6,0,0.,4.8,1.,4.8,0.,4.8,0.,4.8
1981-08-30 18:25:16.410 ,6,0,0.,4.8,0.,4.8,0.,4.8,0.,4.8
1981-08-30 18:25:21.210 ,6,0,2.,4.8,0.,4.8,0.,4.8,0.,4.8
1981-08-30 18:25:26.010 ,6,0,2.,4.8,0.,4.8,0.,4.8,0.,4.8
1981-08-30 18:25:30.810 ,6,0,0.,4.8,0.,4.8,0.,4.8,0.,4.8
1981-08-30 18:25:35.610 ,7,0,0.,4.8,0.,4.8,0.,4.8,0.,4.8
1981-08-30 18:25:40.410 ,7,0,0.,4.8,0.,4.8,0.,4.8,0.,4.8
1981-08-30 18:25:45.210 ,7,0,1.,4.8,0.,4.8,0.,4.8,0.,4.8
1981-08-30 18:25:50.010 ,7,0,0.,4.8,0.,4.8,0.,4.8,0.,4.8
1981-08-30 18:25:54.810 ,7,0,0.,4.8,0.,4.8,0.,4.8,0.,4.8
1981-08-30 18:25:59.610 ,7,0,1.,4.8,0.,4.8,0.,4.8,0.,4.8
1981-08-30 18:26:04.410 ,7,0,1.,4.8,0.,4.8,0.,4.8,0.,4.8
1981-08-30 18:26:09.210 ,7,0,0.,4.8,0.,4.8,0.,4.8,0.,4.8
1981-08-30 18:26:14.010 ,7,0,1.,4.8,0.,4.8,0.,4.8,0.,4.8
1981-08-30 18:26:18.810 ,7,0,0.,4.8,0.,4.8,0.,4.8,0.,4.8
1981-08-30 18:26:23.610 ,7,0,0.,4.8,0.,4.8,0.,4.8,0.,4.8
1981-08-30 18:26:28.410 ,7,0,0.,4.8,0.,4.8,0.,4.8,0.,4.8
1981-08-30 18:26:33.210 ,7,0,1.,4.8,0.,4.8,0.,4.8,0.,4.8
1981-08-30 18:26:38.010 ,7,0,0.,4.8,0.,4.8,0.,4.8,0.,4.8
1981-08-30 18:26:42.810 ,7,0,0.,4.8,0.,4.8,0.,4.8,0.,4.8
1981-08-30 18:26:47.610 ,7,0,2.,4.8,0.,4.8,0.,4.8,0.,4.8
1981-08-30 18:26:52.410 ,7,0,0.,4.8,0.,4.8,1.,4.8,0.,4.8
1981-08-30 18:26:57.210 ,7,0,0.,4.8,0.,4.8,0.,4.8,0.,4.8
1981-08-30 18:27:02.010 ,7,0,0.,4.8,0.,4.8,0.,4.8,0.,4.8
1981-08-30 18:27:06.810 ,7,0,0.,4.8,0.,4.8,0.,4.8,0.,4.8
1981-08-30 18:27:11.610 ,6,0,1.,4.8,0.,4.8,0.,4.8,0.,4.8
1981-08-30 18:27:16.410 ,6,0,0.,4.8,1.,4.8,1.,4.8,0.,4.8
1981-08-30 18:27:21.210 ,6,0,0.,4.8,0.,4.8,0.,4.8,0.,4.8
1981-08-30 18:27:26.010 ,6,0,0.,4.8,0.,4.8,1.,4.8,0.,4.8
1981-08-30 18:27:30.810 ,6,0,0.,4.8,0.,4.8,0.,4.8,0.,4.8
1981-08-30 18:27:35.610 ,6,0,0.,4.8,0.,4.8,0.,4.8,0.,4.8
1981-08-30 18:27:40.410 ,6,0,0.,4.8,0.,4.8,0.,4.8,0.,4.8
1981-08-30 18:27:45.210 ,6,0,0.,4.8,0.,4.8,0.,4.8,0.,4.8
1981-08-30 18:27:50.010 ,6,0,0.,4.8,0.,4.8,0.,4.8,0.,4.8
1981-08-30 18:27:54.810 ,6,0,0.,4.8,0.,4.8,0.,4.8,0.,4.8
1981-08-30 18:27:59.610 ,5,0,0.,4.8,0.,4.8,0.,4.8,0.,4.8
1981-08-30 18:28:04.410 ,5,0,1.,4.8,0.,4.8,0.,4.8,0.,4.8
1981-08-30 18:28:09.210 ,5,0,0.,4.8,0.,4.8,0.,4.8,0.,4.8
1981-08-30 18:28:14.010 ,5,0,0.,4.8,0.,4.8,0.,4.8,0.,4.8
1981-08-30 18:28:18.810 ,5,0,1.,4.8,0.,4.8,0.,4.8,0.,4.8
1981-08-30 18:28:23.610 ,5,0,0.,4.8,0.,4.8,0.,4.8,0.,4.8
1981-08-30 18:28:28.410 ,5,0,0.,4.8,0.,4.8,0.,4.8,0.,4.8
1981-08-30 18:28:33.210 ,5,0,0.,4.8,0.,4.8,0.,4.8,0.,4.8
1981-08-30 18:28:38.010 ,5,0,1.,4.8,0.,4.8,0.,4.8,0.,4.8
1981-08-30 18:28:42.810 ,5,0,0.,4.8,0.,4.8,0.,4.8,0.,4.8
1981-08-30 18:28:47.610 ,4,0,1.,4.8,0.,4.8,0.,4.8,0.,4.8
1981-08-30 18:28:52.410 ,4,0,0.,4.8,0.,4.8,0.,4.8,0.,4.8
1981-08-30 18:28:57.210 ,4,0,0.,4.8,0.,4.8,0.,4.8,0.,4.8
1981-08-30 18:29:02.010 ,4,0,0.,4.8,0.,4.8,0.,4.8,0.,4.8
1981-08-30 18:29:06.810 ,4,0,1.,4.8,0.,4.8,0.,4.8,0.,4.8
1981-08-30 18:29:11.610 ,4,0,2.,4.8,0.,4.8,0.,4.8,0.,4.8
1981-08-30 18:29:16.410 ,4,0,0.,4.8,0.,4.8,0.,4.8,0.,4.8
1981-08-30 18:29:21.210 ,4,0,1.,4.8,0.,4.8,0.,4.8,0.,4.8
1981-08-30 18:29:26.010 ,4,0,0.,4.8,0.,4.8,1.,4.8,0.,4.8
1981-08-30 18:29:30.810 ,4,0,1.,4.8,0.,4.8,1.,4.8,0.,4.8
1981-08-30 18:29:35.610 ,3,0,0.,4.8,0.,4.8,0.,4.8,0.,4.8
1981-08-30 18:29:40.410 ,3,0,1.,4.8,0.,4.8,0.,4.8,0.,4.8
1981-08-30 18:29:45.210 ,3,0,0.,4.8,0.,4.8,0.,4.8,0.,4.8
1981-08-30 18:29:50.010 ,3,0,1.,4.8,0.,4.8,0.,4.8,0.,4.8
1981-08-30 18:29:54.810 ,3,0,0.,4.8,0.,4.8,0.,4.8,0.,4.8
1981-08-30 18:29:59.610 ,3,0,2.,4.8,0.,4.8,0.,4.8,0.,4.8
1981-08-30 18:30:04.410 ,3,0,1.,4.8,0.,4.8,0.,4.8,0.,4.8
1981-08-30 18:30:09.210 ,3,0,1.,4.8,0.,4.8,1.,4.8,0.,4.8
1981-08-30 18:30:14.010 ,3,0,1.,4.8,0.,4.8,0.,4.8,0.,4.8
1981-08-30 18:30:18.810 ,3,0,0.,4.8,0.,4.8,0.,4.8,0.,4.8
1981-08-30 18:30:23.610 ,2,0,0.,4.8,0.,4.8,0.,4.8,0.,4.8
1981-08-30 18:30:28.410 ,2,0,0.,4.8,1.,4.8,0.,4.8,0.,4.8
1981-08-30 18:30:33.210 ,2,0,0.,4.8,0.,4.8,0.,4.8,0.,4.8
1981-08-30 18:30:38.010 ,2,0,0.,4.8,0.,4.8,0.,4.8,0.,4.8
1981-08-30 18:30:42.810 ,2,0,0.,4.8,0.,4.8,0.,4.8,0.,4.8
1981-08-30 18:30:47.610 ,2,0,1.,4.8,0.,4.8,0.,4.8,0.,4.8
1981-08-30 18:30:52.410 ,2,0,0.,4.8,0.,4.8,0.,4.8,0.,4.8
1981-08-30 18:30:57.210 ,2,0,0.,4.8,0.,4.8,0.,4.8,0.,4.8
1981-08-30 18:31:02.010 ,2,0,1.,4.8,0.,4.8,0.,4.8,0.,4.8
1981-08-30 18:31:06.810 ,2,0,0.,4.8,0.,4.8,0.,4.8,0.,4.8
1981-08-30 18:31:11.610 ,1,0,0.,4.8,0.,4.8,0.,4.8,0.,4.8
1981-08-30 18:31:16.410 ,1,0,0.,4.8,0.,4.8,0.,4.8,0.,4.8
1981-08-30 18:31:21.210 ,1,0,1.,4.8,0.,4.8,0.,4.8,0.,4.8
1981-08-30 18:31:26.010 ,1,0,0.,4.8,0.,4.8,0.,4.8,0.,4.8
1981-08-30 18:31:30.810 ,1,0,2.,4.8,0.,4.8,0.,4.8,0.,4.8
1981-08-30 18:31:35.610 ,1,0,0.,4.8,0.,4.8,0.,4.8,0.,4.8
1981-08-30 18:31:40.410 ,1,0,0.,4.8,0.,4.8,0.,4.8,0.,4.8
1981-08-30 18:31:45.210 ,1,0,1.,4.8,0.,4.8,1.,4.8,0.,4.8
1981-08-30 18:31:50.010 ,1,0,0.,4.8,0.,4.8,1.,4.8,0.,4.8
1981-08-30 18:31:54.810 ,1,0,1.,4.8,1.,4.8,0.,4.8,0.,4.8
1981-08-30 18:31:59.610 ,0,0,0.,4.8,0.,4.8,1.,4.8,0.,4.8
1981-08-30 18:32:04.410 ,0,0,0.,4.8,0.,4.8,0.,4.8,0.,4.8
1981-08-30 18:32:09.210 ,0,0,0.,4.8,0.,4.8,0.,4.8,0.,4.8
1981-08-30 18:32:14.010 ,0,0,0.,4.8,0.,4.8,0.,4.8,0.,4.8
1981-08-30 18:32:18.810 ,0,0,0.,4.8,0.,4.8,0.,4.8,0.,4.8
1981-08-30 18:32:23.610 ,0,0,0.,4.8,0.,4.8,0.,4.8,0.,4.8
1981-08-30 18:32:28.410 ,0,0,0.,4.8,1.,4.8,0.,4.8,0.,4.8
1981-08-30 18:32:33.210 ,0,0,2.,4.8,0.,4.8,0.,4.8,0.,4.8
1981-08-30 18:32:38.010 ,0,0,2.,4.8,0.,4.8,0.,4.8,0.,4.8
1981-08-30 18:32:42.810 ,0,0,0.,4.8,0.,4.8,0.,4.8,0.,4.8
1981-08-30 18:32:47.610 ,0,0,0.,4.8,0.,4.8,0.,4.8,0.,4.8
1981-08-30 18:32:52.410 ,0,0,0.,4.8,0.,4.8,0.,4.8,0.,4.8
1981-08-30 18:32:57.210 ,0,0,1.,4.8,0.,4.8,0.,4.8,0.,4.8
1981-08-30 18:33:02.010 ,0,0,0.,4.8,0.,4.8,0.,4.8,0.,4.8
1981-08-30 18:33:06.810 ,0,0,0.,4.8,0.,4.8,0.,4.8,0.,4.8
1981-08-30 18:33:11.610 ,0,0,0.,4.8,0.,4.8,0.,4.8,0.,4.8
1981-08-30 18:33:16.410 ,0,0,2.,4.8,0.,4.8,0.,4.8,0.,4.8
1981-08-30 18:33:21.210 ,0,0,0.,4.8,0.,4.8,0.,4.8,0.,4.8